This demonstration page uses our WeatherBlox Daily Observations layout. Learn more.

38.80484, -77.04692

Hourly Observations for May 27, 2019

Temp ( °F °C ) Dew Point ( °F °C ) Humidity (%) Winds ( mph kmh ) Pressure ( in mb ) Visibility ( mi km ) Precip ( " mm )
12:20 am 00:20 Cloudy with Nearby Thunderstorms 76 24.4 64 17.8 67 67 NNW 9 15 29.94 1014 10 16.09344 0 0
12:33 am 00:33 Cloudy with Thunderstorms 76 24.4 64 17.8 67 67 NW 9 15 29.94 1014 10 16.09344 0 0
12:50 am 00:50 Cloudy with Nearby Thunderstorms 77 25 64 18 65 65 NW 8 13 29.94 1014 10 16.09344 0 0
12:52 am 00:52 Cloudy with Nearby Thunderstorms 76 24.4 64 17.8 67 67 NW 8 13 29.91 1013 10 16.09344 0 0
1:27 am 01:27 Cloudy 73 22.8 67 19.4 81 81 S 3 6 29.94 1014 10 16.09344 0 0
1:52 am 01:52 Cloudy 74 23.3 64 17.8 71 71 N 9 15 29.91 1013 10 16.09344 0 0
2:52 am 02:52 Cloudy 73 22.8 66 18.9 79 79 E 3 6 29.88 1012 10 16.09344 0 0
3:52 am 03:52 Mostly Cloudy 72 22.2 64 17.8 76 76 NW 8 13 29.88 1012 10 16.09344 0 0
4:52 am 04:52 Mostly Cloudy 71 21.7 64 17.8 79 79 NNW 7 11 29.91 1013 10 16.09344 0 0
5:52 am 05:52 Mostly Cloudy 70 21.1 64 17.8 82 82 N 7 11 29.91 1013 10 16.09344 0 0
6:52 am 06:52 Mostly Cloudy 72 22.2 65 18.3 79 79 N 8 13 29.94 1014 10 16.09344 0 0
7:52 am 07:52 Mostly Cloudy 73 22.8 66 18.9 79 79 NNW 9 15 29.97 1015 10 16.09344 0 0
8:52 am 08:52 Partly Cloudy 76 24.4 65 18.3 69 69 N 7 11 29.97 1015 10 16.09344 0 0
9:52 am 09:52 Partly Cloudy 79 26.1 63 17.2 58 58 N 10 17 29.97 1015 10 16.09344 0 0
10:52 am 10:52 Partly Cloudy 80 26.7 64 17.8 58 58 NNE 10 17 29.94 1014 10 16.09344 0 0
11:52 am 11:52 Mostly Cloudy 80 26.7 62 16.7 54 54 NNW 12 19 29.94 1014 10 16.09344 0 0
12:52 pm 12:52 Mostly Cloudy 80 26.7 62 16.7 54 54 WNW 10 17 29.94 1014 10 16.09344 0 0
1:52 pm 13:52 Mostly Cloudy 82 27.8 62 16.7 51 51 N 15 24 29.94 1014 10 16.09344 0 0
2:52 pm 14:52 Mostly Cloudy 83 28.3 60 15.6 46 46 NNW 9 15 29.91 1013 10 16.09344 0 0
3:52 pm 15:52 Mostly Cloudy 84 28.9 62 16.7 48 48 VRB 6 9 29.91 1013 10 16.09344 0 0
4:52 pm 16:52 Mostly Cloudy 84 28.9 60 15.6 44 44 NW 10 17 29.88 1012 10 16.09344 0 0
5:52 pm 17:52 Partly Cloudy 84 28.9 59 15 43 43 NW 14 22 29.88 1012 10 16.09344 0 0
6:52 pm 18:52 Partly Cloudy 83 28.3 61 16.1 48 48 NNW 12 19 29.88 1012 10 16.09344 0 0
7:52 pm 19:52 Mostly Cloudy 81 27.2 60 15.6 49 49 NNW 6 9 29.88 1012 10 16.09344 0 0
8:52 pm 20:52 Mostly Cloudy 76 24.4 65 18.3 69 69 ESE 8 13 29.91 1013 10 16.09344 0 0
9:52 pm 21:52 Mostly Cloudy 74 23.3 64 17.8 71 71 S 3 6 29.91 1013 10 16.09344 0 0
10:52 pm 22:52 Mostly Cloudy 74 23.3 63 17.2 69 69 S 5 7 29.91 1013 10 16.09344 0 0
11:52 pm 23:52 Mostly Cloudy 73 22.8 63 17.2 71 71 Calm 29.88 1012 10 16.09344 0 0

Powered by AerisWeather